Location: Sears
(37.7625°N, 100.1060°W)
Time: 13:39:01
(UTC+00:00)

Daily predictions for brighter satellites

Satellite Brightness Start Highest point End
(mag) Time Altitude Azimuth Time Altitude Azimuth Time Altitude Azimuth
SL-19 R/B 4.1 12:01:17 10° N 12:03:54 35° WNW 12:06:41 10° SW
H-2A R/B 4.3 12:00:48 10° NNE 12:04:46 35° E 12:08:35 10° SSE
Cosmos 1092 Rocket 4.5 12:02:16 10° SW 12:07:51 36° WNW 12:13:31 10° N
Cosmos 2292 Rocket 3.8 12:05:33 10° S 12:08:31 50° E 12:12:03 10° NNE
ERS-2 3.4 12:05:46 10° SSW 12:08:34 21° W 12:10:47 13° NW
deb Chang Zheng 4 4.3 12:04:58 10° N 12:08:42 30° WNW 12:12:27 10° SW
CZ-4B R/B 2.5 12:06:25 10° SSW 12:09:18 25° W 12:12:13 10° NW
Meteor 1-31 Rocket 3.6 12:08:07 10° N 12:11:34 29° WNW 12:14:59 10° SW
Cosmos 2082 Rocket 3.4 12:09:55 13° W 12:13:22 22° NW 12:17:38 10° N
Cosmos 1190 Rocket 4.0 12:08:20 10° SSW 12:13:35 84° WNW 12:18:50 10° NNE
Cosmos 1703 4.1 12:13:11 10° S 12:16:58 54° E 12:20:46 10° NNE
Okean 1-7 Rocket 4.3 12:15:21 10° SW 12:19:27 33° WNW 12:23:32 10° NNW
CREW DRAGON DEMO-1 DEB 4.3 12:16:53 10° NNW 12:19:37 30° NNE 12:22:20 10° E
Cosmos 2058 Rocket 3.6 12:16:18 10° NNW 12:20:28 38° W 12:24:35 10° SSW
CZ-3 R/B 3.2 12:01:07 11° W 12:21:47 50° SSW 12:27:58 10° ESE
PSLV R/B 4.1 12:21:04 10° S 12:25:10 55° W 12:29:19 10° NNW
ALOS 3.5 12:22:46 10° NNW 12:26:06 20° WNW 12:29:26 10° WSW
SL-16 R/B 2.7 12:20:36 10° NNW 12:26:15 64° ENE 12:31:51 10° SSE
Cosmos 2098 Rocket 3.6 12:21:13 10° SSW 12:27:23 67° W 12:32:18 10° N
CZ-4B R/B 3.6 12:27:08 10° N 12:30:53 34° WNW 12:34:47 10° SW
PSLV R/B 3.9 12:27:16 10° N 12:31:24 82° WNW 12:35:29 10° SSW
Cosmos 1140 Rocket 3.6 12:28:17 10° SW 12:33:17 53° WNW 12:38:19 10° N
Cosmos 407 Rocket 3.8 12:29:31 10° SW 12:34:21 41° WNW 12:39:13 10° N
Envisat 3.5 12:29:32 10° NNE 12:34:37 69° E 12:39:40 10° S
S3M 4.1 12:28:55 10° N 12:35:16 86° W 12:41:39 10° S
Cosmos 2266 Rocket 4.1 12:29:28 10° S 12:35:29 85° E 12:41:34 10° N
Cosmos 1697 Rocket 4.3 12:33:31 10° WNW 12:36:05 13° W 12:38:40 10° SW
Cosmos 1655 Rocket 4.0 12:30:35 10° SSW 12:36:50 73° W 12:43:11 10° N
SKYMED 2 4.3 12:34:48 10° SSW 12:38:43 33° W 12:42:39 10° NNW
SL-27 R/B 2.8 12:36:54 10° SW 12:40:21 43° WNW 12:43:50 10° N
ATLAS 5 CENTAUR R/B 4.2 12:21:28 10° SSW 12:41:01 71° SE 12:45:45 10° NE
Aureole 1 Rocket 3.8 12:35:24 10° S 12:41:18 73° ESE 12:45:44 10° NNE
